{"data":{"norad_id":32382,"intl_designator":"2007-061A","name":"RADARSAT-2","alt_names":[],"object_type":"PAYLOAD","status":"ACTIVE","operator":null,"country":"CA","launch_date":"2007-12-14","launch_site_code":"TYMSC","launch_vehicle":null,"mission":null,"orbit_class":"UNKNOWN","rcs_meters":8.381,"size_class":null,"mass_kg":null,"dimensions":null,"purposes":["earth_obs"],"wikipedia_slug":null,"has_3d_model":false,"image_url":null,"decayed_at":null,"tle_current":{"epoch":"2026-05-25T03:46:34.360032Z","epoch_age_seconds":61567,"freshness":"FRESH","line1":"1 32382U 07061A   26145.15734213  .00000056  00000+0  38571-4 0  9994","line2":"2 32382  98.5787 152.4194 0001275  83.8470 276.2857 14.29982710962664","mean_motion":14.2998271,"eccentricity":0.0001275,"inclination_deg":98.5787,"raan_deg":152.4194,"arg_perigee_deg":83.847,"mean_anomaly_deg":276.2857,"bstar":3.8571e-5,"rev_number":96266,"period_min":100.70051826011,"perigee_km":790.87445461998,"apogee_km":792.70278565312,"semimajor_km":7169.9256201365,"source":"CELESTRAK","updated_at":"2026-05-25T13:38:12.745614Z"}}}